Location: Mutterbergalm
(47.0167°N, 11.1500°E)
Time: 18:15:30
(UTC+00:00)

Daily predictions for brighter satellites

Satellite Brightness Start Highest point End
(mag) Time Altitude Azimuth Time Altitude Azimuth Time Altitude Azimuth
CZ-4B R/B 4.2 17:12:23 10° S 17:17:54 55° W 17:23:24 10° NNW
Timation 1 Rocket 4.4 17:12:48 10° NNW 17:18:48 70° ENE 17:24:44 10° SE
Cosmos 1656 3.9 17:14:02 10° SSW 17:19:35 77° WNW 17:25:06 10° NNE
COSMO-SKYMED 1 2.6 17:15:24 10° NNE 17:19:44 63° E 17:24:02 10° S
YAOGAN 1 3.1 17:16:19 10° SE 17:20:18 37° ENE 17:24:18 10° N
Okean-O 3.2 17:17:10 10° SE 17:21:15 38° ENE 17:25:22 10° N
FALCON 9 DEB 4.4 17:19:03 10° SSW 17:21:39 23° SE 17:24:17 10° E
Cosmos 1515 Rocket 3.7 17:17:18 10° N 17:21:43 87° W 17:26:09 10° S
Helios 1A Rocket 4.0 17:18:31 10° ESE 17:21:50 24° ENE 17:25:09 10° N
Cosmos 1500 Rocket 3.7 17:17:40 10° S 17:21:52 52° E 17:26:05 10° NNE
Cosmos 1980 Rocket 2.9 17:18:04 10° SSE 17:23:06 34° ESE 17:28:11 10° NE
SL-4 R/B 1.8 17:20:21 10° SW 17:23:56 59° SSE 17:27:20 10° ENE
Lacrosse 5 rocket 1.4 17:25:05 10° NW 17:29:34 80° NE 17:33:50 10° SE
FALCON 9 DEB 3.9 17:27:14 10° SSW 17:30:06 32° SE 17:32:58 10° ENE
CSL-04 DEB 4.3 17:26:35 10° NNE 17:30:31 75° ESE 17:34:27 10° S
Sich 1 4.0 17:27:42 10° SSE 17:31:23 27° E 17:35:06 10° NNE
Cosmos 1452 Rocket 3.5 17:27:55 10° SSW 17:33:09 79° ESE 17:38:25 10° NNE
Cosmos 44 3.6 17:28:36 10° NW 17:34:04 73° NE 17:39:28 10° SE
Cosmos 2082 3.7 17:29:17 10° NNW 17:34:56 87° ENE 17:40:33 10° SSE
CZ-4B R/B 1.1 17:34:34 10° NNE 17:37:37 85° WNW 17:40:39 10° SSW
SJ-11-01 4.4 17:34:42 10° SSE 17:39:15 54° ENE 17:43:50 10° N
Cosmos 1867 4.1 17:35:47 10° S 17:40:45 38° ESE 17:45:46 10° NE
Cosmos 1707 Rocket 4.4 17:37:52 10° N 17:41:48 30° ENE 17:45:40 10° SE
Cosmos 1741 Rocket 4.1 17:37:56 10° NNW 17:43:18 90° NE 17:48:38 10° SSE
Cosmos 1437 3.6 17:44:18 10° NNE 17:46:44 24° ENE 17:49:08 10° SE
Cosmos 1697 Rocket 2.8 17:41:33 10° SSW 17:47:13 87° WNW 17:52:56 10° NNE
Cosmos 1633 Rocket 4.2 17:44:09 10° SE 17:47:28 21° E 17:50:47 10° NE
Cosmos 2360 4.2 17:42:30 10° SSW 17:48:12 79° ESE 17:53:56 10° NNE
RESURS DK-1 4.3 17:45:07 10° NW 17:48:52 34° WSW 17:52:37 10° S
USA 234 3.4 17:43:07 10° ENE 17:49:36 60° SE 17:56:02 10° SW
ERS-2 2.4 17:46:08 10° NNE 17:49:40 45° E 17:53:10 10° S
Cosmos 1110 Rocket 4.2 17:45:13 10° S 17:50:21 53° ESE 17:55:33 10° NNE
MOS 1 Rocket 4.0 17:46:06 10° N 17:50:52 62° WNW 17:55:54 10° SSW
SL-16 R/B 3.5 17:48:41 10° SE 17:52:15 17° E 17:55:08 12° ENE
IRS-1C Rocket 4.3 17:47:16 10° SSE 17:52:32 79° WSW 17:57:51 10° NNW
Okean O Rocket 4.4 17:53:01 10° SSW 17:56:27 23° W 17:59:55 10° NW
PSLV R/B 3.8 17:54:26 10° NNE 17:58:34 70° ESE 18:02:38 10° S
SAR-Lupe-4 3.6 17:55:22 10° NNE 17:58:54 53° ESE 18:02:22 10° S
Cosmos 2369 3.7 17:53:25 10° SSW 17:59:04 89° WNW 18:04:48 10° NNE
NOSS 2-1 (E) 4.3 17:54:08 10° NW 17:59:05 68° NE 18:06:07 10° SE
USA 305 3.1 17:55:52 10° SW 18:00:03 55° SE 18:03:06 18° ENE
SeaSat 1 2.4 18:00:31 10° NNE 18:05:30 84° ESE 18:10:26 10° SSW
Ariane Rocket 4.1 18:03:13 17° E 18:05:40 24° ENE 18:09:43 10° N
CZ-4 R/B 1.8 18:02:37 10° S 18:06:25 61° WSW 18:10:16 10° NNW
USA 307 3.0 18:03:38 10° SW 18:07:50 60° SE 18:10:33 21° ENE
Cosmos 2263 Rocket 2.3 18:03:20 10° NNW 18:08:49 55° ENE 18:14:09 11° SE
Cosmos 2074 Rocket 4.0 18:06:36 10° S 18:12:42 57° E 18:18:49 10° NNE
FALCON 9 DEB 2.9 18:10:58 10° SW 18:14:08 68° SE 18:15:24 32° ENE
USA 306 2.9 18:09:58 10° SW 18:14:12 68° SE 18:16:45 23° ENE
SAR-Lupe-1 4.0 18:13:17 10° NNE 18:16:54 90° SW 18:20:29 10° SSW
USA 308 2.8 18:13:50 10° SW 18:18:05 70° SE 18:20:27 25° ENE
Cosmos 1805 Rocket 3.8 18:16:08 10° SSW 18:20:29 73° W 18:24:54 10° N
Cosmos 1515 4.3 18:18:21 10° N 18:21:52 33° ENE 18:22:18 32° E
Cosmos 2184 Rocket 3.9 18:19:14 10° S 18:25:19 68° E 18:31:27 10° NNE
Meteor 1-27 Rocket 4.2 18:20:11 10° NNW 18:25:38 62° W 18:31:05 10° S
H-2A R/B 3.0 18:20:53 10° S 18:26:09 53° W 18:31:30 10° NNW
ARGOS 3.4 18:21:30 10° S 18:26:54 74° WSW 18:32:22 10° NNW
SJ-6B 3.4 18:28:38 34° E 18:29:31 39° ENE 18:33:21 10° N
OBJECT-B 2.8 18:32:13 17° NNE 18:32:13 17° NNE 18:33:15 10° N
Cosmos 2278 3.8 18:25:47 10° SSW 18:31:27 79° WNW 18:37:13 10° NNE
Cosmos 1271 Rocket 2.5 18:27:43 10° N 18:31:29 84° E 18:35:13 10° SSE
SL-08 RB Rocket 3.6 18:27:15 10° SSE 18:31:45 86° WSW 18:36:18 10° NNW
COSMOS 2455 3.2 18:26:21 10° NW 18:32:21 68° WSW 18:38:18 10° SSE
FALCON 9 DEB 2.9 18:29:41 10° WSW 18:32:52 78° NNW 18:33:29 53° NE
Meteor 1-18 Rocket 4.5 18:27:34 10° N 18:33:22 52° ENE 18:38:04 16° SSE
Meteor 1-25 Rocket 4.2 18:28:14 10° S 18:33:57 66° E 18:39:40 10° NNE
GP-B 3.5 18:33:07 32° ESE 18:34:26 41° E 18:38:36 10° NNE
HJ-1C 4.5 18:31:25 10° S 18:34:37 45° W 18:37:51 10° NNW
Cosmos 1461 3.7 18:32:53 10° S 18:37:12 37° ESE 18:37:22 37° ESE
MetOp-A 4.1 18:32:18 10° SSE 18:37:35 64° ENE 18:42:54 10° N
CZ-2C R/B 2.6 18:32:18 10° NNE 18:37:54 86° ESE 18:43:21 10° SSW
Cosmos 1689 Rocket 3.7 18:35:28 10° N 18:38:07 34° WNW 18:40:45 10° SW
Okean 1 3.4 18:34:16 10° N 18:38:11 51° ENE 18:38:49 46° ESE
Cosmos 1602 3.7 18:34:26 10° S 18:38:12 55° E 18:42:02 10° NNE
FALCON 9 DEB 4.5 18:36:46 10° WNW 18:39:49 29° N 18:40:27 27° NNE
Cosmos 44 Rocket 4.1 18:35:21 10° NNW 18:40:11 36° NE 18:41:15 33° ENE
Cosmos 1666 Rocket 3.4 18:38:00 10° S 18:42:21 90° SSW 18:46:44 10° N
ATLAS 5 CENTAUR R/B 4.1 18:29:24 10° WSW 18:43:04 49° NW 18:46:35 14° NNE
Cosmos 1862 Rocket 3.5 18:38:42 10° N 18:43:12 67° E 18:45:35 27° SSE
Cosmos 2084 4.2 18:39:06 10° WSW 18:43:13 51° NW 18:46:19 17° NNE
BREEZE-M DEB (TANK) 2.2 18:43:33 10° W 18:45:51 59° N 18:46:16 52° NE
Meteor 2-12 Rocket 4.5 18:40:17 10° SSE 18:46:06 53° E 18:51:59 10° NNE
Cosmos 1844 Rocket 3.6 18:41:57 10° N 18:46:45 28° NE 18:47:04 28° NE
CSL-04 Rocket 4.2 18:42:05 10° S 18:47:34 61° WSW 18:53:04 10° NNW
Gbstr 26 Del rocket 3.2 18:43:07 10° WSW 18:47:36 80° SSE 18:49:30 40° ENE
Cosmos 2341 Rocket 4.4 18:46:42 32° ESE 18:48:29 38° E 18:54:12 10° NNE
Cosmos 1486 Rocket 4.1 18:43:43 10° NNW 18:48:55 57° ENE 18:50:25 42° ESE
Resurs 1-3 4.5 18:50:32 33° NE 18:50:32 33° NE 18:53:41 10° N
SPOT 3 Rocket 4.5 18:53:33 30° NE 18:53:33 30° NE 18:57:27 10° N
FALCON 9 DEB 3.6 18:54:12 10° WSW 18:56:59 53° WNW 18:56:59 53° WNW
SL-4 R/B 2.5 19:00:11 10° W 19:03:19 42° NNW 19:03:19 42° NNW
FALCON 9 DEB 4.3 19:02:47 10° W 19:05:10 38° WNW 19:05:10 38° WNW
Cosmos 1980 Rocket 3.3 19:01:37 10° SW 19:06:59 43° NW 19:12:25 10° NNE
Lacrosse 5 rocket 3.9 19:05:13 10° W 19:08:14 18° WSW 19:11:00 11° SSW
Cosmos 1302 Rocket 4.3 19:09:33 10° SSW 19:14:42 66° WNW 19:19:54 10° NNE
Cosmos 2322 Rocket 2.4 19:10:40 10° S 19:15:03 50° SSE 19:15:03 50° SSE
Meteor 1-17 Rocket 4.5 19:12:02 10° S 19:17:32 69° E 19:23:00 10° NNE
Cosmos 968 Rocket 3.6 19:12:31 10° NNW 19:17:47 76° WSW 19:19:11 49° S
Cosmos 1503 Rocket 4.2 19:19:15 10° NNW 19:23:43 58° NNE 19:23:43 58° NNE
Cosmos 1633 Rocket 4.4 19:20:49 10° SW 19:24:58 40° WNW 19:29:11 10° N
USA 234 3.7 19:29:24 30° NE 19:32:36 57° NNW 19:38:58 10° W
SL-16 R/B 2.2 19:29:58 10° SSW 19:35:39 79° WNW 19:37:14 49° NNE
USA 305 4.2 19:36:02 10° W 19:39:14 38° NW 19:39:14 38° NW
Resurs 01 Rocket 3.5 19:44:37 23° N 19:44:37 23° N 19:46:19 10° N
Ariane Rocket 3.7 19:43:24 46° SW 19:44:18 52° W 19:49:18 10° NNW
Cosmos 2263 Rocket 4.1 19:47:54 10° NW 19:52:22 25° WSW 19:55:56 14° SSW
BREEZE-M DEB (TANK) 4.5 20:04:45 10° W 20:17:22 67° WSW 20:17:22 67° WSW
Cosmos 2278 Rocket 4.3 20:24:40 10° NNW 20:26:30 19° N 20:26:30 19° N
Cosmos 1844 Rocket 4.1 20:25:31 10° NW 20:28:45 34° NW 20:28:45 34° NW
